GFA151 VTBS-OBBI

Flight info

Callsign GFA151
Flight time N/A
Altitude 38000
Route PASTO1G PASTO L301 ANKOX/N0463F400 L301 RAGMA N571 MENSA DCT EGTAG P699 ALKAN M556 ORDIG
Aircraft A343/H-SDE2E3FGHIJ4J5M1RWXY/LB1D1

Departure

Time N/A
Airport Suvarnabhumi Airport (VTBS)

Arrival

Time 2026-05-05 10:13
Airport Bahrain International Airport (OBBI)
Time Latitude Longitude Altitude Speed Heading
2026-05-05 06:34 19.73118 75.99411 37919 ft 446 kts 283°
2026-05-05 06:35 19.74542 75.93004 37917 ft 446 kts 283°
2026-05-05 06:35 19.75965 75.86589 37923 ft 446 kts 283°
2026-05-05 06:36 19.77377 75.80214 37925 ft 443 kts 283°
2026-05-05 06:36 19.78775 75.73890 37933 ft 438 kts 283°
2026-05-05 06:37 19.80166 75.67590 37931 ft 438 kts 283°
2026-05-05 06:37 19.81555 75.61286 37936 ft 438 kts 283°
2026-05-05 06:38 19.82932 75.55023 37938 ft 438 kts 283°
2026-05-05 06:38 19.84315 75.48722 37939 ft 438 kts 283°
2026-05-05 06:39 19.85702 75.42397 37932 ft 438 kts 283°
2026-05-05 06:39 19.87016 75.36115 37941 ft 438 kts 281°
2026-05-05 06:40 19.88168 75.29777 37939 ft 436 kts 281°
2026-05-05 06:40 19.89305 75.23435 37940 ft 436 kts 281°
2026-05-05 06:41 19.90464 75.17099 37939 ft 436 kts 281°
2026-05-05 06:41 19.91636 75.10764 37942 ft 436 kts 281°
2026-05-05 06:42 19.92807 75.04436 37952 ft 436 kts 281°
2026-05-05 06:42 19.93974 74.98111 37953 ft 437 kts 281°
2026-05-05 06:43 19.95134 74.91812 37955 ft 437 kts 281°
2026-05-05 06:43 19.96297 74.85475 37958 ft 437 kts 281°
2026-05-05 06:44 19.97460 74.79129 37957 ft 437 kts 281°
2026-05-05 06:44 19.98619 74.72790 37948 ft 437 kts 281°
2026-05-05 06:45 19.99776 74.66450 37952 ft 437 kts 281°
2026-05-05 06:45 20.00932 74.60101 37951 ft 437 kts 281°
2026-05-05 06:46 20.02078 74.53794 37954 ft 437 kts 281°
2026-05-05 06:46 20.03229 74.47443 37955 ft 437 kts 281°
2026-05-05 06:47 20.04377 74.41098 37955 ft 437 kts 281°
2026-05-05 06:47 20.05526 74.34739 37950 ft 437 kts 281°
2026-05-05 06:48 20.06670 74.28386 37957 ft 437 kts 281°
2026-05-05 06:48 20.07807 74.22066 37957 ft 437 kts 281°
2026-05-05 06:49 20.08947 74.15709 37967 ft 437 kts 281°
2026-05-05 06:49 20.10084 74.09360 37964 ft 436 kts 281°
2026-05-05 06:50 20.11212 74.03043 37966 ft 436 kts 281°
2026-05-05 06:50 20.12343 73.96697 37965 ft 436 kts 281°
2026-05-05 06:51 20.13472 73.90352 37967 ft 436 kts 281°
2026-05-05 06:51 20.14592 73.84042 37966 ft 436 kts 281°
2026-05-05 06:52 20.15716 73.77694 37964 ft 436 kts 281°
2026-05-05 06:52 20.16838 73.71345 37968 ft 436 kts 281°
2026-05-05 06:53 20.17957 73.64999 37963 ft 436 kts 281°
2026-05-05 06:53 20.19069 73.58677 37963 ft 436 kts 281°
2026-05-05 06:54 20.20182 73.52342 37961 ft 436 kts 281°
2026-05-05 06:54 20.21293 73.45995 37946 ft 436 kts 281°
2026-05-05 06:55 20.22404 73.39640 37948 ft 436 kts 281°
2026-05-05 06:55 20.23513 73.33285 37938 ft 436 kts 281°
2026-05-05 06:56 20.24619 73.26934 37936 ft 436 kts 281°
2026-05-05 06:56 20.25755 73.20625 37927 ft 436 kts 282°
2026-05-05 06:57 20.26960 73.14294 37926 ft 436 kts 282°
2026-05-05 06:57 20.28167 73.07946 37923 ft 436 kts 282°
2026-05-05 06:58 20.29360 73.01600 37922 ft 436 kts 281°
2026-05-05 06:58 20.30544 72.95262 37919 ft 436 kts 281°
2026-05-05 06:59 20.31719 72.88954 37915 ft 436 kts 281°
2026-05-05 06:59 20.32897 72.82617 37913 ft 436 kts 281°
2026-05-05 07:00 20.34075 72.76271 37913 ft 436 kts 281°
2026-05-05 07:00 20.35244 72.69961 37916 ft 436 kts 281°
2026-05-05 07:01 20.36417 72.63616 37911 ft 436 kts 281°
2026-05-05 07:01 20.37586 72.57275 37909 ft 436 kts 281°
2026-05-05 07:02 20.38756 72.50923 37900 ft 436 kts 281°
2026-05-05 07:02 20.39915 72.44611 37902 ft 436 kts 281°
2026-05-05 07:03 20.41080 72.38255 37895 ft 436 kts 281°
2026-05-05 07:03 20.42241 72.31905 37896 ft 436 kts 281°
2026-05-05 07:04 20.43403 72.25540 37895 ft 436 kts 281°
2026-05-05 07:04 20.44560 72.19187 37893 ft 436 kts 281°
2026-05-05 07:05 20.45715 72.12832 37891 ft 436 kts 281°
2026-05-05 07:05 20.46861 72.06512 37880 ft 436 kts 281°
2026-05-05 07:06 20.48013 72.00156 37882 ft 436 kts 281°
2026-05-05 07:06 20.49161 71.93790 37881 ft 436 kts 281°
2026-05-05 07:07 20.50298 71.87429 37883 ft 436 kts 281°
2026-05-05 07:07 20.51434 71.81064 37880 ft 436 kts 281°
2026-05-05 07:08 20.52569 71.74707 37878 ft 436 kts 281°
2026-05-05 07:08 20.53696 71.68377 37876 ft 436 kts 281°
2026-05-05 07:09 20.54827 71.62016 37872 ft 436 kts 281°
2026-05-05 07:09 20.55956 71.55654 37872 ft 436 kts 281°
2026-05-05 07:10 20.57082 71.49290 37873 ft 436 kts 281°
2026-05-05 07:10 20.58206 71.42925 37873 ft 436 kts 281°
2026-05-05 07:11 20.59331 71.36544 37873 ft 436 kts 281°
2026-05-05 07:11 20.60446 71.30200 37874 ft 436 kts 281°
2026-05-05 07:12 20.61564 71.23828 37874 ft 436 kts 281°
2026-05-05 07:12 20.62679 71.17460 37876 ft 436 kts 281°
2026-05-05 07:13 20.63602 71.12172 37876 ft 436 kts 281°
2026-05-05 07:13 20.64893 71.04764 37880 ft 436 kts 281°
2026-05-05 07:14 20.65822 70.99423 37883 ft 436 kts 281°
2026-05-05 07:14 20.66922 70.93087 37883 ft 436 kts 281°
2026-05-05 07:15 20.68026 70.86707 37883 ft 436 kts 281°
2026-05-05 07:15 20.69128 70.80331 37883 ft 437 kts 281°
2026-05-05 07:16 20.70229 70.73946 37879 ft 436 kts 281°
2026-05-05 07:16 20.71316 70.67623 37877 ft 435 kts 281°
2026-05-05 07:17 20.72412 70.61232 37873 ft 435 kts 281°
2026-05-05 07:17 20.73495 70.54909 37874 ft 435 kts 281°
2026-05-05 07:18 20.74584 70.48532 37874 ft 435 kts 281°
2026-05-05 07:18 20.75669 70.42164 37872 ft 436 kts 281°
2026-05-05 07:19 20.76750 70.35803 37872 ft 436 kts 280°
2026-05-05 07:19 20.77826 70.29460 37874 ft 436 kts 280°
2026-05-05 07:20 20.78910 70.23052 37873 ft 436 kts 280°
2026-05-05 07:20 20.79982 70.16706 37874 ft 436 kts 280°
2026-05-05 07:21 20.81058 70.10317 37876 ft 436 kts 280°
2026-05-05 07:21 20.82132 70.03924 37873 ft 436 kts 280°
2026-05-05 07:22 20.83198 69.97567 37872 ft 436 kts 280°
2026-05-05 07:22 20.84267 69.91175 37876 ft 436 kts 280°
2026-05-05 07:23 20.85333 69.84787 37873 ft 436 kts 280°
2026-05-05 07:23 20.86398 69.78388 37873 ft 437 kts 280°
2026-05-05 07:24 20.87462 69.71980 37871 ft 437 kts 280°
2026-05-05 07:24 20.88516 69.65616 37871 ft 437 kts 280°
2026-05-05 07:25 20.89577 69.59202 37872 ft 437 kts 280°
2026-05-05 07:25 20.90633 69.52794 37872 ft 437 kts 280°
2026-05-05 07:26 20.91688 69.46382 37873 ft 438 kts 280°
2026-05-05 07:26 20.92736 69.39991 37873 ft 438 kts 280°
2026-05-05 07:27 20.93789 69.33563 37872 ft 438 kts 280°
2026-05-05 07:27 20.94837 69.27142 37869 ft 438 kts 280°
2026-05-05 07:28 20.95883 69.20720 37870 ft 438 kts 280°
2026-05-05 07:28 20.96931 69.14285 37871 ft 439 kts 280°
2026-05-05 07:29 20.98749 69.08062 37870 ft 439 kts 291°
2026-05-05 07:29 21.01153 69.02096 37870 ft 440 kts 293°
2026-05-05 07:30 21.03673 68.96130 37874 ft 440 kts 294°
2026-05-05 07:30 21.07450 68.87161 37874 ft 440 kts 293°
2026-05-05 07:31 21.09945 68.81181 37873 ft 440 kts 293°
2026-05-05 07:31 21.12421 68.75231 37873 ft 440 kts 293°
2026-05-05 07:32 21.14912 68.69236 37873 ft 440 kts 293°
2026-05-05 07:32 21.17402 68.63242 37873 ft 440 kts 293°
2026-05-05 07:33 21.19884 68.57258 37873 ft 440 kts 293°
2026-05-05 07:33 21.22369 68.51260 37871 ft 440 kts 293°
2026-05-05 07:34 21.24856 68.45251 37868 ft 441 kts 293°
2026-05-05 07:34 21.27325 68.39277 37870 ft 441 kts 293°
2026-05-05 07:35 21.29810 68.33258 37871 ft 441 kts 293°
2026-05-05 07:35 21.32269 68.27293 37872 ft 441 kts 293°
2026-05-05 07:36 21.34769 68.21224 37870 ft 440 kts 293°
2026-05-05 07:36 21.37222 68.15261 37866 ft 440 kts 293°
2026-05-05 07:37 21.39698 68.09235 37868 ft 441 kts 293°
2026-05-05 07:37 21.42172 68.03206 37867 ft 441 kts 293°
2026-05-05 07:38 21.44644 67.97174 37867 ft 441 kts 293°
2026-05-05 07:38 21.47097 67.91183 37867 ft 441 kts 293°
2026-05-05 07:39 21.49562 67.85153 37868 ft 441 kts 293°
2026-05-05 07:39 21.52023 67.79128 37868 ft 441 kts 293°
2026-05-05 07:40 21.54487 67.73087 37868 ft 441 kts 293°
2026-05-05 07:40 21.56943 67.67058 37867 ft 440 kts 293°
2026-05-05 07:41 21.59381 67.61067 37870 ft 440 kts 293°
2026-05-05 07:41 21.61834 67.55030 37870 ft 440 kts 293°
2026-05-05 07:42 21.64286 67.48990 37868 ft 441 kts 293°
2026-05-05 07:42 21.66722 67.42981 37868 ft 441 kts 293°
2026-05-05 07:43 21.69171 67.36933 37865 ft 441 kts 293°
2026-05-05 07:43 21.71620 67.30876 37870 ft 441 kts 293°
2026-05-05 07:44 21.74067 67.24816 37866 ft 441 kts 293°
2026-05-05 07:44 21.76496 67.18795 37863 ft 441 kts 293°
2026-05-05 07:45 21.78945 67.12717 37865 ft 441 kts 293°
2026-05-05 07:45 21.81386 67.06652 37868 ft 441 kts 293°
2026-05-05 07:46 21.83821 67.00593 37871 ft 441 kts 293°
2026-05-05 07:46 21.86256 66.94526 37869 ft 441 kts 293°
2026-05-05 07:47 21.88672 66.88499 37870 ft 441 kts 293°
2026-05-05 07:47 21.91101 66.82432 37865 ft 441 kts 293°
2026-05-05 07:48 21.93530 66.76359 37862 ft 441 kts 293°
2026-05-05 07:48 21.95958 66.70279 37865 ft 441 kts 293°
2026-05-05 07:49 21.98385 66.64195 37863 ft 441 kts 293°
2026-05-05 07:49 22.00795 66.58146 37863 ft 441 kts 293°
2026-05-05 07:50 22.03210 66.52075 37859 ft 440 kts 293°
2026-05-05 07:50 22.05631 66.45986 38013 ft 443 kts 293°
2026-05-05 07:51 22.06847 66.42927 38137 ft 444 kts 293°
2026-05-05 07:51 22.08064 66.39861 38290 ft 445 kts 293°
2026-05-05 07:51 22.09269 66.36821 38445 ft 445 kts 293°
2026-05-05 07:51 22.10485 66.33751 38605 ft 445 kts 293°
2026-05-05 07:52 22.11700 66.30682 38737 ft 445 kts 293°
2026-05-05 07:52 22.12917 66.27606 38891 ft 445 kts 293°
2026-05-05 07:52 22.14131 66.24538 39015 ft 445 kts 293°
2026-05-05 07:52 22.15344 66.21469 39138 ft 445 kts 293°
2026-05-05 07:53 22.16557 66.18399 39266 ft 445 kts 293°
2026-05-05 07:53 22.17770 66.15327 39390 ft 445 kts 293°
2026-05-05 07:53 22.18984 66.12250 39537 ft 444 kts 292°
2026-05-05 07:53 22.20180 66.09217 39652 ft 444 kts 292°
2026-05-05 07:54 22.21391 66.06144 39805 ft 444 kts 293°
2026-05-05 07:54 22.22600 66.03073 39859 ft 446 kts 293°
2026-05-05 07:54 22.24627 65.97920 39852 ft 449 kts 293°
2026-05-05 07:55 22.27058 65.91735 39858 ft 447 kts 292°
2026-05-05 07:55 22.29490 65.85540 39858 ft 447 kts 292°
2026-05-05 07:56 22.31916 65.79351 39855 ft 448 kts 292°
2026-05-05 07:56 22.34343 65.73150 39849 ft 448 kts 292°
2026-05-05 07:57 22.36754 65.66983 39850 ft 448 kts 292°
2026-05-05 07:57 22.39176 65.60778 39842 ft 448 kts 292°
2026-05-05 07:58 22.41584 65.54604 39849 ft 448 kts 292°
2026-05-05 07:58 22.43999 65.48399 39847 ft 446 kts 292°
2026-05-05 07:59 22.46401 65.42223 39847 ft 445 kts 292°
2026-05-05 07:59 22.48800 65.36045 39842 ft 444 kts 292°
2026-05-05 08:00 22.51191 65.29881 39843 ft 444 kts 292°
2026-05-05 08:00 22.53582 65.23708 39847 ft 445 kts 292°
2026-05-05 08:01 22.55961 65.17556 39844 ft 446 kts 292°
2026-05-05 08:01 22.58352 65.11369 39844 ft 445 kts 292°
2026-05-05 08:02 22.60728 65.05209 39839 ft 441 kts 292°
2026-05-05 08:02 22.63089 64.99079 39847 ft 441 kts 292°
2026-05-05 08:03 22.65443 64.92962 39839 ft 439 kts 292°
2026-05-05 08:03 22.67788 64.86859 39840 ft 438 kts 292°
2026-05-05 08:04 22.70110 64.80807 39840 ft 438 kts 292°
2026-05-05 08:04 22.72445 64.74715 39845 ft 438 kts 292°
2026-05-05 08:05 22.74783 64.68606 39841 ft 438 kts 292°
2026-05-05 08:05 22.77118 64.62497 39835 ft 438 kts 292°
2026-05-05 08:06 22.79447 64.56393 39837 ft 438 kts 292°
2026-05-05 08:06 22.81761 64.50323 39836 ft 438 kts 292°
2026-05-05 08:07 22.84086 64.44215 39841 ft 438 kts 292°
2026-05-05 08:07 22.86402 64.38123 39838 ft 435 kts 292°
2026-05-05 08:08 22.88705 64.32057 39842 ft 434 kts 292°
2026-05-05 08:08 22.91004 64.25994 39832 ft 435 kts 292°
2026-05-05 08:09 22.93302 64.19925 39836 ft 435 kts 292°
2026-05-05 08:09 22.95587 64.13882 39843 ft 435 kts 292°
2026-05-05 08:10 22.97883 64.07802 39834 ft 435 kts 292°
2026-05-05 08:10 23.00177 64.01719 39843 ft 435 kts 291°
2026-05-05 08:11 23.02469 63.95634 39840 ft 436 kts 291°
2026-05-05 08:11 23.04750 63.89541 39832 ft 436 kts 290°
2026-05-05 08:12 23.06172 63.83167 39839 ft 435 kts 279°
2026-05-05 08:12 23.06942 63.76645 39830 ft 436 kts 277°
2026-05-05 08:13 23.07594 63.70147 39842 ft 436 kts 276°
2026-05-05 08:13 23.08247 63.63602 39836 ft 436 kts 277°
2026-05-05 08:14 23.08914 63.57049 39843 ft 436 kts 277°
2026-05-05 08:14 23.09588 63.50496 39843 ft 436 kts 277°
2026-05-05 08:15 23.10259 63.43949 39837 ft 436 kts 277°
2026-05-05 08:15 23.10928 63.37400 39841 ft 435 kts 276°
2026-05-05 08:16 23.11588 63.30901 39835 ft 435 kts 276°
2026-05-05 08:16 23.12250 63.24356 39845 ft 435 kts 276°
2026-05-05 08:17 23.12908 63.17819 39842 ft 435 kts 276°
2026-05-05 08:17 23.13565 63.11267 39838 ft 435 kts 276°
2026-05-05 08:18 23.14219 63.04723 39841 ft 436 kts 276°
2026-05-05 08:18 23.14866 62.98213 39839 ft 436 kts 276°
2026-05-05 08:19 23.15518 62.91632 39828 ft 434 kts 276°
2026-05-05 08:19 23.16156 62.85154 39829 ft 433 kts 276°
2026-05-05 08:20 23.16795 62.78644 39839 ft 433 kts 276°
2026-05-05 08:20 23.17432 62.72128 39835 ft 433 kts 276°
2026-05-05 08:21 23.18067 62.65601 39826 ft 433 kts 276°
2026-05-05 08:21 23.18694 62.59136 39839 ft 433 kts 276°
2026-05-05 08:22 23.19323 62.52617 39826 ft 433 kts 276°
2026-05-05 08:22 23.19949 62.46102 39835 ft 434 kts 276°
2026-05-05 08:23 23.20574 62.39569 39832 ft 434 kts 276°
2026-05-05 08:23 23.21195 62.33046 39829 ft 434 kts 276°
2026-05-05 08:24 23.21810 62.26556 39823 ft 434 kts 276°
2026-05-05 08:24 23.22427 62.20021 39834 ft 434 kts 275°
2026-05-05 08:25 23.23042 62.13482 39837 ft 435 kts 275°
2026-05-05 08:25 23.23653 62.06944 39825 ft 435 kts 275°
2026-05-05 08:26 23.24263 62.00394 39829 ft 435 kts 275°
2026-05-05 08:26 23.24869 61.93857 39833 ft 434 kts 275°
2026-05-05 08:27 23.25470 61.87343 39825 ft 432 kts 275°
2026-05-05 08:27 23.26064 61.80884 39822 ft 432 kts 275°
2026-05-05 08:28 23.26658 61.74381 39828 ft 432 kts 275°
2026-05-05 08:28 23.27249 61.67884 39822 ft 432 kts 275°
2026-05-05 08:29 23.27839 61.61381 39824 ft 432 kts 275°
2026-05-05 08:30 23.28713 61.51671 39829 ft 432 kts 275°
2026-05-05 08:30 23.29296 61.45164 39821 ft 432 kts 275°
2026-05-05 08:31 23.29876 61.38654 39824 ft 432 kts 275°
2026-05-05 08:31 23.30452 61.32161 39825 ft 432 kts 275°
2026-05-05 08:32 23.31024 61.25687 39822 ft 432 kts 275°
2026-05-05 08:32 23.31596 61.19172 39819 ft 433 kts 275°
2026-05-05 08:33 23.32280 61.12667 39822 ft 433 kts 277°
2026-05-05 08:33 23.33143 61.06179 39826 ft 433 kts 277°
2026-05-05 08:34 23.34004 60.99685 39831 ft 433 kts 277°
2026-05-05 08:34 23.34829 60.93204 39814 ft 431 kts 277°
2026-05-05 08:35 23.35629 60.86782 39811 ft 430 kts 277°
2026-05-05 08:35 23.36428 60.80321 39807 ft 430 kts 277°
2026-05-05 08:36 23.37091 60.74952 39817 ft 430 kts 277°
2026-05-05 08:36 23.37888 60.68484 39818 ft 431 kts 277°
2026-05-05 08:37 23.39331 60.62144 39813 ft 432 kts 288°
2026-05-05 08:37 23.41468 60.56006 39806 ft 433 kts 290°
2026-05-05 08:38 23.43701 60.49953 39810 ft 434 kts 290°
2026-05-05 08:38 23.45956 60.43854 39805 ft 434 kts 290°
2026-05-05 08:39 23.48195 60.37744 39810 ft 434 kts 290°
2026-05-05 08:39 23.50419 60.31642 39809 ft 432 kts 290°
2026-05-05 08:40 23.52629 60.25565 39796 ft 431 kts 290°
2026-05-05 08:40 23.54821 60.19531 39796 ft 431 kts 290°
2026-05-05 08:41 23.57024 60.13457 39805 ft 431 kts 289°
2026-05-05 08:41 23.59227 60.07376 39801 ft 431 kts 289°
2026-05-05 08:42 23.61415 60.01328 39797 ft 431 kts 289°
2026-05-05 08:42 23.63611 59.95250 39805 ft 431 kts 289°
2026-05-05 08:43 23.65805 59.89168 39795 ft 431 kts 289°
2026-05-05 08:43 23.67995 59.83089 39798 ft 430 kts 289°
2026-05-05 08:44 23.70175 59.77030 39795 ft 428 kts 289°
2026-05-05 08:44 23.72351 59.70974 39795 ft 428 kts 289°
2026-05-05 08:45 23.74513 59.64944 39800 ft 428 kts 289°
2026-05-05 08:45 23.76686 59.58879 39793 ft 428 kts 289°
2026-05-05 08:46 23.78856 59.52813 39797 ft 429 kts 289°
2026-05-05 08:46 23.81027 59.46734 39795 ft 429 kts 289°
2026-05-05 08:47 23.83195 59.40657 39796 ft 429 kts 289°
2026-05-05 08:47 23.85360 59.34579 39794 ft 428 kts 289°
2026-05-05 08:48 23.87499 59.28566 39795 ft 427 kts 289°
2026-05-05 08:48 23.89652 59.22503 39793 ft 427 kts 289°
2026-05-05 08:49 23.91804 59.16435 39796 ft 428 kts 289°
2026-05-05 08:49 23.94017 59.10398 39791 ft 428 kts 292°
2026-05-05 08:50 23.96573 59.04497 39790 ft 429 kts 294°
2026-05-05 08:50 23.99169 58.98659 39788 ft 430 kts 293°
2026-05-05 08:51 24.01736 58.92751 39803 ft 430 kts 292°
2026-05-05 08:51 24.04268 58.86831 39793 ft 428 kts 292°
2026-05-05 08:52 24.06781 58.80923 39789 ft 428 kts 292°
2026-05-05 08:52 24.09295 58.75007 39793 ft 428 kts 292°
2026-05-05 08:53 24.11788 58.69140 39789 ft 428 kts 292°
2026-05-05 08:53 24.14305 58.63221 39787 ft 428 kts 292°
2026-05-05 08:54 24.16814 58.57306 39791 ft 428 kts 292°
2026-05-05 08:54 24.19322 58.51384 39799 ft 428 kts 292°
2026-05-05 08:55 24.21807 58.45512 39787 ft 426 kts 292°
2026-05-05 08:55 24.24298 58.39616 39791 ft 426 kts 292°
2026-05-05 08:56 24.26790 58.33712 39788 ft 426 kts 292°
2026-05-05 08:56 24.29282 58.27800 39787 ft 426 kts 292°
2026-05-05 08:57 24.31753 58.21931 39790 ft 426 kts 292°
2026-05-05 08:57 24.34235 58.16028 39790 ft 426 kts 292°
2026-05-05 08:58 24.36716 58.10120 39799 ft 426 kts 292°
2026-05-05 08:58 24.39192 58.04217 39790 ft 425 kts 292°
2026-05-05 08:59 24.41657 57.98331 39791 ft 424 kts 291°
2026-05-05 08:59 24.44119 57.92444 39785 ft 424 kts 291°
2026-05-05 09:00 24.46579 57.86555 39789 ft 424 kts 291°
2026-05-05 09:00 24.49024 57.80692 39791 ft 424 kts 291°
2026-05-05 09:01 24.51445 57.74786 39795 ft 424 kts 290°
2026-05-05 09:01 24.53699 57.68802 39790 ft 423 kts 289°
2026-05-05 09:02 24.55925 57.62811 39791 ft 423 kts 289°
2026-05-05 09:02 24.58159 57.56864 39793 ft 423 kts 290°
2026-05-05 09:03 24.60415 57.50896 39793 ft 423 kts 290°
2026-05-05 09:03 24.62677 57.44916 39793 ft 423 kts 290°
2026-05-05 09:04 24.64939 57.38927 39796 ft 423 kts 290°
2026-05-05 09:04 24.67179 57.32990 39793 ft 423 kts 289°
2026-05-05 09:05 24.69438 57.26988 39792 ft 424 kts 289°
2026-05-05 09:05 24.71685 57.21008 39794 ft 422 kts 289°
2026-05-05 09:06 24.73924 57.15042 39797 ft 421 kts 289°
2026-05-05 09:06 24.76164 57.09065 39795 ft 422 kts 289°
2026-05-05 09:07 24.78398 57.03095 39801 ft 422 kts 289°
2026-05-05 09:07 24.80621 56.97147 39800 ft 422 kts 289°
2026-05-05 09:08 24.82852 56.91169 39799 ft 422 kts 289°
2026-05-05 09:08 24.85083 56.85182 39800 ft 422 kts 289°
2026-05-05 09:09 24.87306 56.79210 39802 ft 421 kts 289°
2026-05-05 09:09 24.89525 56.73237 39807 ft 421 kts 289°
2026-05-05 09:10 24.91742 56.67263 39807 ft 421 kts 289°
2026-05-05 09:10 24.93956 56.61288 39812 ft 421 kts 289°
2026-05-05 09:11 24.96018 56.55302 39802 ft 419 kts 283°
2026-05-05 09:11 24.97100 56.49023 39809 ft 417 kts 276°
2026-05-05 09:12 24.97890 56.42677 39806 ft 417 kts 275°
2026-05-05 09:12 24.98626 56.36328 39805 ft 417 kts 275°
2026-05-05 09:13 24.99363 56.30025 39809 ft 416 kts 276°
2026-05-05 09:13 25.00113 56.23713 39811 ft 414 kts 276°
2026-05-05 09:14 25.00863 56.17400 39813 ft 415 kts 276°
2026-05-05 09:14 25.01613 56.11080 39812 ft 416 kts 276°
2026-05-05 09:15 25.02358 56.04763 39803 ft 416 kts 276°
2026-05-05 09:15 25.03098 55.98464 39799 ft 416 kts 275°
2026-05-05 09:16 25.03840 55.92138 39798 ft 416 kts 275°
2026-05-05 09:16 25.04578 55.85815 39790 ft 416 kts 275°
2026-05-05 09:17 25.05309 55.79520 39788 ft 416 kts 275°
2026-05-05 09:17 25.05922 55.74224 39779 ft 416 kts 275°
2026-05-05 09:18 25.06649 55.67926 39778 ft 416 kts 275°
2026-05-05 09:18 25.07379 55.61580 39778 ft 415 kts 275°
2026-05-05 09:19 25.08103 55.55262 39774 ft 414 kts 275°
2026-05-05 09:19 25.08818 55.48998 39774 ft 414 kts 275°
2026-05-05 09:20 25.09540 55.42649 39775 ft 414 kts 275°
2026-05-05 09:20 25.10249 55.36386 39773 ft 414 kts 275°
2026-05-05 09:21 25.10961 55.30074 39789 ft 414 kts 275°
2026-05-05 09:21 25.11670 55.23761 39786 ft 415 kts 275°
2026-05-05 09:22 25.12379 55.17430 39787 ft 415 kts 275°
2026-05-05 09:22 25.13081 55.11138 39786 ft 415 kts 275°
2026-05-05 09:23 25.13784 55.04810 39785 ft 415 kts 275°
2026-05-05 09:23 25.14484 54.98478 39784 ft 415 kts 275°
2026-05-05 09:24 25.15207 54.92154 39779 ft 415 kts 276°
2026-05-05 09:24 25.16149 54.85877 39777 ft 414 kts 278°
2026-05-05 09:25 25.17148 54.79610 39775 ft 414 kts 277°
2026-05-05 09:25 25.18109 54.73377 39777 ft 414 kts 277°
2026-05-05 09:26 25.19051 54.67102 39777 ft 414 kts 277°
2026-05-05 09:26 25.19985 54.60815 39777 ft 414 kts 277°
2026-05-05 09:27 25.20923 54.54537 39783 ft 415 kts 278°
2026-05-05 09:27 25.22311 54.48342 39777 ft 416 kts 282°
2026-05-05 09:28 25.23850 54.42166 39779 ft 417 kts 282°
2026-05-05 09:28 25.25406 54.36029 39781 ft 416 kts 282°
2026-05-05 09:29 25.26959 54.29884 39781 ft 415 kts 283°
2026-05-05 09:29 25.28494 54.23729 39778 ft 414 kts 282°
2026-05-05 09:30 25.30009 54.17584 39778 ft 414 kts 282°
2026-05-05 09:30 25.31507 54.11480 39784 ft 414 kts 281°
2026-05-05 09:31 25.32841 54.05294 39787 ft 413 kts 280°
2026-05-05 09:31 25.34101 53.99087 39782 ft 413 kts 279°
2026-05-05 09:32 25.35381 53.92884 39788 ft 414 kts 280°
2026-05-05 09:32 25.36686 53.86666 39788 ft 414 kts 280°
2026-05-05 09:33 25.37986 53.80517 39792 ft 412 kts 280°
2026-05-05 09:33 25.39282 53.74351 39794 ft 411 kts 280°
2026-05-05 09:34 25.40576 53.68171 39792 ft 412 kts 280°
2026-05-05 09:34 25.41863 53.62015 39789 ft 412 kts 280°
2026-05-05 09:35 25.43156 53.55837 39790 ft 412 kts 280°
2026-05-05 09:35 25.45089 53.46544 39787 ft 412 kts 280°
2026-05-05 09:36 25.46369 53.40362 39790 ft 412 kts 280°
2026-05-05 09:36 25.47643 53.34206 39791 ft 411 kts 279°
2026-05-05 09:37 25.48915 53.28050 39788 ft 409 kts 279°
2026-05-05 09:37 25.50185 53.21900 39787 ft 410 kts 279°
2026-05-05 09:38 25.51442 53.15780 39791 ft 410 kts 279°
2026-05-05 09:38 25.52701 53.09616 39791 ft 410 kts 279°
2026-05-05 09:39 25.53958 53.03452 39787 ft 410 kts 279°
2026-05-05 09:39 25.55216 52.97280 39784 ft 410 kts 279°
2026-05-05 09:40 25.56692 52.91164 39788 ft 414 kts 287°
2026-05-05 09:40 25.59192 52.85370 39791 ft 417 kts 292°
2026-05-05 09:41 25.61921 52.79745 39787 ft 417 kts 294°
2026-05-05 09:41 25.64702 52.74109 39786 ft 417 kts 293°
2026-05-05 09:42 25.67476 52.68449 39788 ft 417 kts 293°
2026-05-05 09:42 25.70231 52.62790 39787 ft 417 kts 293°
2026-05-05 09:43 25.72963 52.57159 39786 ft 417 kts 293°
2026-05-05 09:43 25.75710 52.51493 39602 ft 416 kts 293°
2026-05-05 09:44 25.77075 52.48669 39372 ft 413 kts 292°
2026-05-05 09:44 25.78407 52.45837 39141 ft 413 kts 292°
2026-05-05 09:44 25.79722 52.42992 38906 ft 413 kts 292°
2026-05-05 09:44 25.81030 52.40146 38681 ft 414 kts 292°
2026-05-05 09:45 25.82340 52.37296 38452 ft 414 kts 292°
2026-05-05 09:45 25.83656 52.34440 38176 ft 415 kts 292°
2026-05-05 09:45 25.84956 52.31630 37812 ft 412 kts 292°
2026-05-05 09:45 25.86318 52.28826 37288 ft 415 kts 296°
2026-05-05 09:46 25.87978 52.26175 36741 ft 421 kts 303°
2026-05-05 09:46 25.89879 52.23675 36139 ft 425 kts 305°
2026-05-05 09:46 25.91856 52.21211 35526 ft 429 kts 306°
2026-05-05 09:46 25.93884 52.18752 34852 ft 434 kts 307°
2026-05-05 09:47 25.95946 52.16281 34141 ft 438 kts 307°
2026-05-05 09:47 25.98028 52.13791 33371 ft 442 kts 307°
2026-05-05 09:47 26.00129 52.11273 32597 ft 444 kts 307°
2026-05-05 09:47 26.02233 52.08743 31831 ft 447 kts 307°
2026-05-05 09:48 26.04310 52.06240 31285 ft 445 kts 307°
2026-05-05 09:48 26.06405 52.03717 30807 ft 441 kts 307°
2026-05-05 09:48 26.08474 52.01220 30264 ft 438 kts 307°
2026-05-05 09:48 26.10536 51.98723 29726 ft 436 kts 307°
2026-05-05 09:49 26.12579 51.96245 29148 ft 433 kts 307°
2026-05-05 09:49 26.14603 51.93787 28615 ft 429 kts 308°
2026-05-05 09:49 26.16610 51.91350 28089 ft 425 kts 308°
2026-05-05 09:49 26.18605 51.88925 27549 ft 422 kts 308°
2026-05-05 09:50 26.20580 51.86524 27043 ft 419 kts 308°
2026-05-05 09:50 26.22540 51.84140 26518 ft 416 kts 308°
2026-05-05 09:50 26.24421 51.81712 25992 ft 411 kts 303°
2026-05-05 09:50 26.25931 51.79035 25458 ft 406 kts 297°
2026-05-05 09:51 26.27278 51.76284 24959 ft 403 kts 295°
2026-05-05 09:51 26.28538 51.73541 24438 ft 401 kts 294°
2026-05-05 09:51 26.29771 51.70761 23928 ft 399 kts 294°
2026-05-05 09:51 26.30988 51.67984 23416 ft 398 kts 294°
2026-05-05 09:52 26.32204 51.65206 22832 ft 397 kts 295°
2026-05-05 09:52 26.33420 51.62449 22295 ft 395 kts 295°
2026-05-05 09:52 26.34628 51.59721 21774 ft 392 kts 295°
2026-05-05 09:52 26.35837 51.56997 21253 ft 390 kts 295°
2026-05-05 09:53 26.37037 51.54295 20739 ft 388 kts 295°
2026-05-05 09:53 26.38091 51.51531 20205 ft 386 kts 290°
2026-05-05 09:53 26.39053 51.48739 19708 ft 384 kts 289°
2026-05-05 09:53 26.39966 51.45955 19207 ft 382 kts 288°
2026-05-05 09:54 26.40844 51.43203 18704 ft 381 kts 288°
2026-05-05 09:54 26.41727 51.40406 18194 ft 381 kts 288°
2026-05-05 09:54 26.42604 51.37623 17643 ft 380 kts 288°
2026-05-05 09:54 26.43482 51.34852 17106 ft 378 kts 288°
2026-05-05 09:55 26.44359 51.32099 16597 ft 375 kts 288°
2026-05-05 09:55 26.45194 51.29348 16071 ft 372 kts 284°
2026-05-05 09:55 26.45508 51.26509 15565 ft 368 kts 266°
2026-05-05 09:55 26.44966 51.23730 15044 ft 366 kts 251°
2026-05-05 09:56 26.44027 51.21094 14542 ft 365 kts 248°
2026-05-05 09:56 26.43040 51.18494 14035 ft 363 kts 248°
2026-05-05 09:56 26.42060 51.15906 13519 ft 361 kts 249°
2026-05-05 09:56 26.41089 51.13323 12970 ft 360 kts 249°
2026-05-05 09:57 26.40452 51.11620 12628 ft 358 kts 249°
2026-05-05 09:57 26.39498 51.09067 12133 ft 355 kts 248°
2026-05-05 09:57 26.38556 51.06537 11639 ft 353 kts 248°
2026-05-05 09:57 26.37319 51.03220 11142 ft 345 kts 248°
2026-05-05 09:58 26.36403 51.00762 10849 ft 338 kts 248°
2026-05-05 09:58 26.35803 50.99152 10770 ft 329 kts 248°
2026-05-05 09:58 26.34951 50.96869 10667 ft 317 kts 248°
2026-05-05 09:58 26.34326 50.94568 10545 ft 305 kts 263°
2026-05-05 09:59 26.34518 50.92273 10418 ft 295 kts 289°
2026-05-05 09:59 26.35438 50.90267 10304 ft 287 kts 301°
2026-05-05 09:59 26.36512 50.88420 10138 ft 281 kts 302°
2026-05-05 09:59 26.37585 50.86611 9874 ft 277 kts 302°
2026-05-05 10:00 26.38632 50.84835 9289 ft 274 kts 301°
2026-05-05 10:00 26.39678 50.83047 8618 ft 275 kts 302°
2026-05-05 10:00 26.40726 50.81248 8181 ft 277 kts 302°
2026-05-05 10:00 26.41747 50.79424 7849 ft 277 kts 297°
2026-05-05 10:01 26.42329 50.77407 7597 ft 271 kts 274°
2026-05-05 10:01 26.42121 50.75375 7457 ft 260 kts 250°
2026-05-05 10:01 26.41240 50.73723 7231 ft 245 kts 227°
2026-05-05 10:01 26.39889 50.72614 6807 ft 241 kts 204°
2026-05-05 10:02 26.38319 50.71967 6331 ft 240 kts 200°
2026-05-05 10:02 26.36736 50.71386 5868 ft 239 kts 189°
2026-05-05 10:02 26.35085 50.71416 5512 ft 239 kts 163°
2026-05-05 10:02 26.33640 50.72272 5253 ft 236 kts 136°
2026-05-05 10:03 26.32729 50.73756 4999 ft 232 kts 109°
2026-05-05 10:03 26.32440 50.75513 4760 ft 231 kts 93°
2026-05-05 10:03 26.32348 50.77294 4552 ft 229 kts 94°
2026-05-05 10:03 26.31955 50.79011 4348 ft 230 kts 114°
2026-05-05 10:04 26.31175 50.80558 4178 ft 229 kts 121°
2026-05-05 10:04 26.30315 50.82055 4051 ft 230 kts 122°
2026-05-05 10:04 26.29444 50.83547 3928 ft 229 kts 121°
2026-05-05 10:04 26.28578 50.85042 3651 ft 230 kts 122°
2026-05-05 10:05 26.27706 50.86551 3348 ft 232 kts 121°
2026-05-05 10:05 26.26831 50.88061 3068 ft 233 kts 121°
2026-05-05 10:05 26.25844 50.89477 2693 ft 238 kts 139°
2026-05-05 10:05 26.24607 50.90680 2508 ft 232 kts 133°
2026-05-05 10:06 26.23323 50.91739 2478 ft 232 kts 158°
2026-05-05 10:06 26.21757 50.91932 2489 ft 221 kts 191°
2026-05-05 10:06 26.20403 50.91333 2494 ft 201 kts 210°
2026-05-05 10:06 26.19208 50.90544 2476 ft 200 kts 212°
2026-05-05 10:07 26.18029 50.89728 2471 ft 201 kts 213°
2026-05-05 10:07 26.16861 50.88910 2469 ft 200 kts 214°
2026-05-05 10:07 26.15976 50.87746 2468 ft 198 kts 249°
2026-05-05 10:07 26.15749 50.86249 2472 ft 196 kts 269°
2026-05-05 10:08 26.15759 50.84732 2468 ft 196 kts 272°
2026-05-05 10:08 26.15941 50.83236 2463 ft 195 kts 288°
2026-05-05 10:08 26.16525 50.81883 2468 ft 194 kts 302°
2026-05-05 10:08 26.17243 50.80610 2464 ft 194 kts 302°
2026-05-05 10:09 26.17962 50.79340 2466 ft 194 kts 304°
2026-05-05 10:09 26.18687 50.78070 2465 ft 194 kts 303°
2026-05-05 10:09 26.19385 50.76826 2378 ft 183 kts 302°
2026-05-05 10:09 26.20035 50.75661 2188 ft 172 kts 303°
2026-05-05 10:10 26.20664 50.74568 1966 ft 166 kts 304°
2026-05-05 10:10 26.21266 50.73519 1748 ft 152 kts 304°
2026-05-05 10:10 26.21805 50.72576 1574 ft 141 kts 304°
2026-05-05 10:10 26.22322 50.71673 1381 ft 137 kts 304°
2026-05-05 10:11 26.22838 50.70776 1215 ft 138 kts 304°
2026-05-05 10:11 26.23367 50.69879 1044 ft 139 kts 305°
2026-05-05 10:11 26.23857 50.68953 873 ft 140 kts 301°
2026-05-05 10:11 26.24362 50.68023 694 ft 138 kts 304°
2026-05-05 10:12 26.24885 50.67142 542 ft 135 kts 305°
2026-05-05 10:12 26.25398 50.66278 371 ft 132 kts 306°
2026-05-05 10:12 26.25898 50.65422 205 ft 132 kts 306°
2026-05-05 10:12 26.26386 50.64565 39 ft 127 kts 306°
2026-05-05 10:13 26.26799 50.63859 20 ft 84 kts 302°
2026-05-05 10:13 26.27022 50.63471 19 ft 41 kts 303°
2026-05-05 10:13 26.27165 50.63223 19 ft 33 kts 302°
2026-05-05 10:13 26.27247 50.63055 21 ft 21 kts 289°
2026-05-05 10:14 26.27257 50.62892 22 ft 21 kts 271°
2026-05-05 10:14 26.27262 50.62750 24 ft 17 kts 272°
2026-05-05 10:14 26.27241 50.62646 24 ft 12 kts 219°
2026-05-05 10:14 26.27167 50.62660 26 ft 12 kts 136°
2026-05-05 10:15 26.27120 50.62737 28 ft 12 kts 122°
2026-05-05 10:15 26.27074 50.62820 28 ft 13 kts 123°
2026-05-05 10:15 26.27024 50.62908 29 ft 14 kts 123°
2026-05-05 10:15 26.26967 50.63005 27 ft 16 kts 123°
2026-05-05 10:16 26.26916 50.63092 29 ft 11 kts 123°
2026-05-05 10:16 26.26885 50.63127 30 ft 5 kts 162°
2026-05-05 10:16 26.26855 50.63110 28 ft 6 kts 216°
2026-05-05 10:16 26.26816 50.63082 25 ft 3 kts 213°
2026-05-05 10:17 26.26809 50.63077 28 ft 2 kts 213°
2026-05-05 10:17 26.26808 50.63076 28 ft 0 kts 213°